Regional Weather Roundup
Issued by NWS Columbia, SC

Home | Current Version | Previous Version | Text Only | Print | Product List | Glossary On
Versions: 1 2 3 4 5 6 7 8 9 10 11 12 13 14 15 16 17 18 19 20 21 22 23 24 25 26 27 28 29 30 31 32 33 34 35 36 37 38 39 40 41 42 43 44 45 46 47 48 49 50
000
ASUS42 KCAE 210810
RWRCAE
REGIONAL WEATHER ROUNDUP
NATIONAL WEATHER SERVICE COLUMBIA SC
400 AM EDT SAT APR 21 2018

NOTE: "FAIR" INDICATES FEW OR NO CLOUDS BELOW 12,000 FEET WITH NO
SIGNIFICANT WEATHER AND/OR OBSTRUCTIONS TO VISIBILITY.

NOT ALL STATIONS ARE QUALITY CONTROLLED BY THE NATIONAL
WEATHER SERVICE. USE DATA WITH CAUTION...ESPECIALLY
DEWPOINT OBSERVATIONS.

SCZ001>056-GAZ040-063>065-077-210900-
...UPSTATE SOUTH CAROLINA...

CITY           SKY/WX    TMP DP  RH WIND       PRES   REMARKS
ANDERSON       FAIR      44  37  76 NE3       30.32R
LIBERTY        FAIR      37  37 100 NE3       30.32R
SPARTANBURG    FAIR      41  36  81 N5        30.34R
CLEMSON        FAIR      46  37  71 N3        30.34R
GREENVILLE     FAIR      49  34  56 N7        30.34R
GREENWOOD      FAIR      39  38  96 CALM      30.34R
GREER          FAIR      45  37  73 CALM      30.34R
ROCK HILL      FAIR      39  37  92 CALM      30.35R
CHESTER        FAIR      41  32  70 CALM      30.35R
LAURENS        FAIR      36  36 100 CALM      30.33R


...CENTRAL SOUTH CAROLINA...

CITY           SKY/WX    TMP DP  RH WIND       PRES   REMARKS
COLUMBIA APT   FAIR      42  39  89 CALM      30.33R
COLUMBIA OWENS FAIR      44  39  82 CALM      30.34R
MCENTIRE ANGB  FAIR      40  38  93 CALM      30.33R
ORANGEBURG     FAIR      42  39  89 NE3       30.32R
SUMTER SHAW    FAIR      42  37  80 N3        30.31R
NEWBERRY       FAIR      43  36  75 E5        30.36R
AIKEN          FAIR      37  34  87 CALM      30.35R
BARNWELL       FAIR      41  39  93 CALM      30.32R
MANNING        FAIR      36  36 100 CALM      30.33R
CAMDEN         FAIR      41  34  75 CALM      30.35R
LANCASTER      MIX PCPN  37  37 100 CALM      30.35R
WINNSBORO      FAIR      45  34  65 E5        30.33R


...EASTERN AND COASTAL SOUTH CAROLINA...

CITY           SKY/WX    TMP DP  RH WIND       PRES   REMARKS
MYRTLE BEACH   FAIR      57  43  59 E9        30.35R
N MYRTLE BCH   FAIR      43  42  97 NE3       30.34R
CONWAY         FAIR      37  37 100 CALM      30.34S
MARION         FAIR      37  37 100 CALM      30.35R
HARTSVILLE     FAIR      39  36  87 CALM      30.34R
FLORENCE       FAIR      43  39  86 NE3       30.35R
DARLINGTON     FAIR      41  40  96 N3        30.36R
CHARLESTON APT FAIR      48  44  86 NE6       30.31R
MOUNT PLEASANT FAIR      46  46 100 CALM      30.31R
WALTERBORO     FAIR      37  36  93 CALM      30.32R
BEAUFORT       FAIR      58  49  72 NE7       30.29


...EASTERN GEORGIA...

CITY           SKY/WX    TMP DP  RH WIND       PRES   REMARKS
AUGUSTA BUSH F FAIR      39  38  96 CALM      30.32R
AUGUSTA DANIEL FAIR      51  38  60 E5        30.32R
THOMSON        FAIR      38  37  93 CALM      30.36R
WASHINGTON     FAIR      43  36  75 CALM      30.31R
CLAXTON        FAIR      45  44  98 CALM      30.28S
SYLVANIA       FAIR      46  45  93 E3        30.30S
STATESBORO     FAIR      44  32  62 CALM      30.28S
SAVANNAH       FAIR      50  47  89 NE6       30.28R


...SOUTHERN NORTH CAROLINA...

CITY           SKY/WX    TMP DP  RH WIND       PRES   REMARKS
CHARLOTTE      FAIR      40  36  86 N3        30.35R
MONROE         FAIR      43  36  76 NE7       30.34R
WADESBORO      FAIR      36  33  88 CALM      30.36R
ROCKINGHAM     FAIR      40  35  83 CALM      30.35R
RUTHERFORDTON  FAIR      40  37  89 CALM      30.37R
ASHEVILLE      FAIR      37  33  85 S3        30.36R

$$



USA.gov is the U.S. government's official web portal to all federal, state and local government web resources and services.